Regional Weather Roundup
Issued by NWS Wilmington, NC

Home | Current Version | Previous Version | Text Only | Print | Product List | Glossary On
Versions: 1 2 3 4 5 6 7 8 9 10 11 12 13 14 15 16 17 18 19 20 21 22 23 24 25 26 27 28 29 30 31 32 33 34 35 36 37 38 39 40 41 42 43 44 45 46 47 48
000
ASUS42 KILM 100510
RWRILM
RWRILM
REGIONAL HOURLY WEATHER ROUNDUP
NATIONAL WEATHER SERVICE WILMINGTON NC
100 AM EDT THU JUL 10 2014

NOTE: "FAIR" INDICATES FEW OR NO CLOUDS BELOW 12,000 FEET WITH NO
SIGNIFICANT WEATHER AND/OR OBSTRUCTIONS TO VISIBILITY.

...............WFO WILMINGTON COUNTY WARNING AREA...............

......COASTAL NC AND SC COUNTIES......

CITY           SKY/WX    TMP DP  RH WIND       PRES   REMARKS
WILMINGTON     PTCLDY    80  74  81 SW9       30.06R
SOUTHPORT      CLEAR     80  75  84 SW8       30.07S
N MYRTLE BEACH PTCLDY    81  75  82 SW14      30.05R
MYRTLE BEACH   PTCLDY    81  73  78 S13       30.06S

......INLAND NC AND SC COUNTIES.......

CITY           SKY/WX    TMP DP  RH WIND       PRES   REMARKS
LUMBERTON      MOCLDY    78  73  84 S5        30.03S
ELIZABETHTOWN  MOCLDY    79  73  81 S5        30.05S
WHITEVILLE     MOCLDY    77  73  88 CALM      30.05F
FLORENCE       CLOUDY    80  72  76 S6        30.03S
DARLINGTON     CLOUDY    81  68  65 SW6       30.05S

....................REST OF NORTH CAROLINA......................

.........EASTERN NC.........

CITY           SKY/WX    TMP DP  RH WIND       PRES   REMARKS
CAPE HATTERAS  PTCLDY    81  77  88 SW13G21   30.07F
JACKSONVILLE   PTCLDY    75  72  88 S5        30.06S
MOREHEAD CITY  MOCLDY    81  77  88 SW15G24   30.07S
KENANSVILLE    MOCLDY    77  73  85 CALM      30.05S
NEW BERN       PTCLDY    79  74  84 S6        30.07S
ELIZABETH CITY CLOUDY    71  69  93 CALM      30.05S

.........CENTRAL NC.........

CITY           SKY/WX    TMP DP  RH WIND       PRES   REMARKS
RALEIGH DURHAM CLOUDY    75  69  81 SW5       30.04S
ROCKY MOUNT    CLOUDY    75  71  87 CALM      30.03F
ROANOKE RAPIDS NOT AVBL
FAYETTEVILLE   NOT AVBL
HOFFMAN        CLOUDY    76  72  88 N1        30.05S

.........WESTERN NC.........

CITY           SKY/WX    TMP DP  RH WIND       PRES   REMARKS
CHARLOTTE      CLOUDY    73  69  87 CALM      30.05S
GREENSBORO     MOCLDY    71  69  93 SW7       30.05R
HICKORY        NOT AVBL
BOONE          NOT AVBL
ASHEVILLE      NOT AVBL

.....................REST OF SOUTH CAROLINA.....................

.........EASTERN SC.........

CITY           SKY/WX    TMP DP  RH WIND       PRES   REMARKS
CHARLESTON     MOCLDY    82  76  81 S9        30.04F
BEAUFORT MCAS  MOCLDY    82  77  84 W9        30.05R HX  90
HILTON HEAD    NOT AVBL

.........CENTRAL SC.........

CITY           SKY/WX    TMP DP  RH WIND       PRES   REMARKS
COLUMBIA       CLOUDY    78  72  81 CALM      30.03S
ORANGEBURG     PTCLDY    75  71  87 CALM      30.05S
SUMTER SHAW    CLOUDY    78  70  76 SW7       30.02F

.........WESTERN SC.........

CITY           SKY/WX    TMP DP  RH WIND       PRES   REMARKS
GREENVILLE     NOT AVBL
ROCK HILL      CLOUDY    72  71  97 SW3       30.06R
ANDERSON       CLOUDY    73  69  87 CALM      30.06S
CLEMSON        NOT AVBL
GREENWOOD      MOCLDY    74  67  78 SW9       30.06F


...................COASTAL AND OFFSHORE REPORTS..................

................LOCAL PIERS AND NC RESERVE................


STATION/POSITION TIME  SKY/WX   TEMP    WIND        PRES    VSBY
                                AIR SEA DIR/SP/G
                 (UTC)          (F)     (DEG/KT/KT) (MB)    (MI)
JOHNY MRCER PIER 0500            81 83  210/ 15/ 19 1017.3R
NC RESRV MASNBRO 0400            80     210/  7     1017.0S
OCEAN CREST PIER 0500            81 83  220/ 18/ 20 1016.9F
SPRINGMAID  PIER 0500            81 83  200/ 21/ 23 1017.5S


................COASTAL AND OFFSHORE BUOYS................


STATION/POSITION TIME  SKY/WX   TEMP    WIND        PRES    VSBY
                                AIR SEA DIR/SP/G
                 (UTC)          (F)     (DEG/KT/KT) (MB)    (MI)
DIMNDSHOAL 41025 0500                   VRB 17/ 19  1018.1F
WVE H/P(F/S)=  5/ 5 WND WVE H/P(F/S)=  5/ 5 SWL H/P/D(F/S/D)=  2/130/ 8

CAPE LOOKOUT     0400            81     200/ 12/ 15 1018.3R
ONSLOW BAY 41036 0400            81 81  210/ 17/ 21 1018.4R
5 WRITEBCH 41038 0400            78 81  210/ 16/ 19 1018.7R
MASONBORO  41110 0500               81                N/A
WVE H/P(F/S)=  4/ 5 WND WVE H/P(F/S)=  3/ 5

WILM HARBR 41108 NOT AVBL
27WRITEBCH 41037 0400            78 81  220/ 17/ 21 1017.7F
FRYING PAN 41013 NOT AVBL
SUNST NRSH 41024 0400            82     210/ 17/ 21 1017.5R
CAPRS NRSH 41029 0400            82     220/ 17/ 23   N/A
EDISTO     41004 0500            82 81  200/ 16/ 17 1017.2F
WVE H/P(F/S)=  5/ 5 WND WVE H/P(F/S)=  5/ 5 SWL H/P/D(F/S/D)=  2/ 8



..........OFFSHORE BUOYS BEYOND 100 NM OFFSHORE...........
.....IN A TRIANGLE---HAT TO BERMUDA TO BAHAMAS TO HAT.....


STATION/POSITION TIME  SKY/WX   TEMP    WIND        PRES    VSBY
                                AIR SEA DIR/SP/G
                 (UTC)          (F)     (DEG/KT/KT) (MB)    (MI)
150E HAT   41001 NOT AVBL
W BERMUDA  41048 NOT AVBL
ATLANTIC S 41049 0433            79 84   80/ 10/ 12 1023.8F
WVE H/P(F/S)=  4/ 7 WND WVE H/P(F/S)=  2/ 4 SWL H/P/D(F/S/D)=  3/100/ 7

E BAHAMAS  41046 NOT AVBL
NE BAHAMAS 41047 NOT AVBL
120E CANVRL41010 0400            81 83  170/ 12/ 14 1020.1F

END



USA.gov is the U.S. government's official web portal to all federal, state and local government web resources and services.